Regional Weather Roundup
Issued by NWS

Home | Current Version | Previous Version | Graphics & Text | Print | Product List | Glossary On
Versions: 1 2 3 4 5 6 7 8 9 10 11 12 13 14 15 16 17 18 19 20 21 22 23 24 25 26 27 28 29 30 31 32 33 34 35 36 37 38 39 40 41 42 43 44 45 46 47 48 49 50
226
ASUS43 KBIS 081310
RWRND

NORTH DAKOTA REGIONAL WEATHER ROUNDUP
NATIONAL WEATHER SERVICE BISMARCK ND
700 AM CST THU DEC 08 2016

NOTE: "FAIR" INDICATES FEW OR NO CLOUDS BELOW 12,000 FEET WITH NO
SIGNIFICANT WEATHER AND/OR OBSTRUCTIONS TO VISIBILITY.


NDZ001>003-009>011-017-081400-
NORTHWEST NORTH DAKOTA

CITY           SKY/WX    TMP DP  RH WIND       PRES   REMARKS
WILLISTON      CLOUDY     1  -6  72 NW15      30.64R WCI -18
MINOT          CLEAR      0  -5  79 W18       30.58R WCI -21
MINOT AFB      PTCLDY    -2  -8  78 NW17      30.57R WCI -24
$$

NDZ018>021-031>035-040>046-081400-
SOUTHWEST NORTH DAKOTA

CITY           SKY/WX    TMP DP  RH WIND       PRES   REMARKS
BISMARCK       CLOUDY     4  -1  80 NW22G29   30.59R WCI -18
DICKINSON      CLEAR     -9 -14  78 NW10      30.54R WCI -27
GARRISON         N/A     -1  -6  79 NW21      30.56R WCI -24
HETTINGER ARPT CLEAR     -8 -13  78 W12       30.56R WCI -27
$$

NDZ004>008-012>016-024-026-027-054-081400-
NORTHEAST NORTH DAKOTA

CITY           SKY/WX    TMP DP  RH WIND       PRES   REMARKS
GRAND FORKS    LGT SNOW  16  11  80 NW21      30.42R BLWGSNOWWCI  -1
GRND FRKS AFB  MIX PCPN  15   8  76 N20       30.43R WCI  -3
DEVILS LAKE    CLOUDY     6   2  83 NW22      30.47R WCI -15
$$

NDZ022-023-025-028>030-036>039-047>053-081400-
SOUTHEAST NORTH DAKOTA

CITY           SKY/WX    TMP DP  RH WIND       PRES   REMARKS
FARGO          CLOUDY    17  11  77 NW22      30.42R WCI   0
JAMESTOWN      CLOUDY     5   1  83 NW25      30.48R WCI -18
$$





USA.gov is the U.S. government's official web portal to all federal, state and local government web resources and services.